Weather History for Bloemfontein, South Africa

Change the Weather History Date:

Thursday, January 3, 2013

  Actual Average Record
Temperature  
Mean Temperature 73 °F -  
Max Temperature 85 °F 83 °F - (-1)
Min Temperature 61 °F 56 °F - (-1)
Cooling Degree Days 8    
Growing Degree Days 23 (Base 50)    
Moisture  
Dew Point 52 °F    
Average Humidity 53    
Maximum Humidity 94    
Minimum Humidity 10    
Precipitation  
Precipitation 0.00 in 0.11 in - ()
Sea Level Pressure  
Sea Level Pressure 29.97 in    
Wind  
Wind Speed 8 mph ()    
Max Wind Speed 18 mph    
Max Gust Speed -    
Visibility 8.9 miles    
Events      
Averages and records for this station are not official NWS values.
T = Trace of Precipitation, MM = Missing Value Source: Averaged Metar Reports

Daily Weather History Graph

Daily Weather History Graph

Search for Another Location

Airport:

Trip Planner

Search our weather history database for the weather conditions in past years. The results will help you decide how hot, cold, wet, or windy it might be!

Date:

Astronomy

Jan. 03, 2013 Rise Set
Actual Time 5:20 AM SAST 7:17 PM SAST
Civil Twilight 4:53 AM SAST 7:44 PM SAST
Nautical Twilight 4:21 AM SAST 8:17 PM SAST
Astronomical Twilight 3:46 AM SAST 8:51 PM SAST
Moon 10:58 PM SAST (1/3) 10:42 AM SAST (1/3)
Length of Visible Light 14h 50m
Length of Day
13h 56m
Waning Gibbous, 68% of the Moon is Illuminated
Jan 3
Waning Gibbous
Jan 5
Last Quarter
Jan 11
New
Jan 19
First Quarter
Jan 27
Full

Hourly Weather History & Observations

Time (SAST) Temp. Heat Index Dew Point Humidity Pressure Visibility Wind Dir Wind Speed Gust Speed Precip Events Conditions
12:00 AM 64.4 °F - 57.2 °F 77% 30.01 in - North 9.2 mph - N/A   Unknown
1:00 AM 66.2 °F - 59.0 °F 78% 30.09 in - North 6.9 mph - N/A   Unknown
2:00 AM 64 °F - 61 °F 87%  in - ENE 4.6 mph - -  
2:00 AM 62.6 °F - 60.8 °F 94% 30.04 in - ENE 4.6 mph - N/A   Unknown
3:00 AM 62.6 °F - 59.0 °F 88% 30.01 in - NE 6.9 mph - N/A   Unknown
4:00 AM 60.8 °F - 59.0 °F 94% 29.98 in - North 5.8 mph - N/A   Unknown
5:00 AM 62 °F - 59 °F 87%  in 25 mi North 4.6 mph - -   Partly Cloudy
5:00 AM 60.8 °F - 59.0 °F 94% 29.98 in - North 3.5 mph - N/A   Clear
6:00 AM 62.6 °F - 57.2 °F 82% 29.98 in - Variable 2.3 mph - N/A   Clear
7:00 AM 66.2 °F - 59.0 °F 78% 29.98 in - NNW 8.1 mph - N/A   Clear
8:00 AM 70 °F - 60 °F 62%  in 25 mi NW 8.1 mph - -   Scattered Clouds
8:00 AM 68.0 °F - 59.0 °F 73% 30.01 in - NW 8.1 mph - N/A   Clear
9:00 AM 71.6 °F - 59.0 °F 64% 29.98 in - NW 11.5 mph - N/A   Clear
10:00 AM 75.2 °F - 60.8 °F 61% 29.98 in 6.2 mi NW 12.7 mph - N/A   Partly Cloudy
11:00 AM 78 °F - 61 °F 46%  in 25 mi WNW 9.2 mph - -   Mostly Cloudy
11:00 AM 77.0 °F - 60.8 °F 57% 30.01 in 6.2 mi WNW 8.1 mph - N/A   Mostly Cloudy
12:00 PM 80.6 °F 81.1 °F 59.0 °F 48% 29.98 in 6.2 mi WNW 16.1 mph - N/A   Mostly Cloudy
1:00 PM 80.6 °F 81.1 °F 59.0 °F 48% 29.95 in 6.2 mi WNW 18.4 mph - N/A   Scattered Clouds
2:00 PM 84 °F - 58 °F 31%  in 19 mi West 11.5 mph - -   Mostly Cloudy
2:00 PM 82.4 °F 82.0 °F 57.2 °F 42% 29.95 in 6.2 mi West 10.4 mph - N/A   Mostly Cloudy
3:00 PM 82.4 °F 82.9 °F 60.8 °F 48% 29.89 in 6.2 mi West 12.7 mph - N/A   Partly Cloudy
4:00 PM 84.2 °F 83.5 °F 57.2 °F 40% 29.89 in 6.2 mi West 17.3 mph - N/A   Partly Cloudy
5:00 PM 85 °F - 49 °F 18%  in 19 mi WSW 12.7 mph - -   Scattered Clouds
5:00 PM 84.2 °F - 48.2 °F 29% 29.89 in 6.2 mi WSW 11.5 mph - N/A   Partly Cloudy
6:00 PM 84.2 °F - 39.2 °F 20% 29.89 in 6.2 mi West 15.0 mph - N/A   Partly Cloudy
7:00 PM 80.6 °F - 35.6 °F 20% 29.89 in 6.2 mi WSW 13.8 mph - N/A   Partly Cloudy
8:00 PM 76 °F - 30 °F 10%  in 19 mi SW 6.9 mph - -   Scattered Clouds
8:00 PM 75.2 °F - 30.2 °F 19% 29.95 in - SW 6.9 mph - N/A   Clear
9:00 PM 71.6 °F - 35.6 °F 27% 29.92 in 6.2 mi WSW 11.5 mph - N/A   Unknown
10:00 PM 69.8 °F - 33.8 °F 27% 29.98 in - SW 8.1 mph - N/A   Unknown
11:00 PM 69 °F - 34 °F 17%  in - SW 8.1 mph - -  
11:00 PM 68.0 °F - 33.8 °F 28% 29.98 in - SW 6.9 mph - N/A   Unknown